Content
SEND FEEDBACK

Daily
Averages
Monthly
Summary
Canada

MONTREAL, QUEBEC


Home > North America > Canada > Quebec
Elevation: 118 feet     Latitude: 45 28N     Longitude: 073 45W

WEATHER
 
SELECT A DAY
Number of Records: 202,447;   Date Range: 1/1/95 - 11/22/14
 
SHARE

PRINT THIS DATA

[ ← Previous Day ]
WEATHER ALMANAC - FEBRUARY 22, 2013
[ Next Day → ]
[ °C ]   °F
Weather ElementAverageHighLow
Temperature25.7 °F32 °F (3:00 pm)19.4 °F (6:00 am)
Dewpoint20 °F24 °F (1:00 pm)15.8 °F (1:00 am)
Humidity78.1 %86 % (2:00 am)69 % (1:00 pm)
Barometer30.37 in30.46 in (8:00 am)30.24 in (11:00 pm)
Wind Speed6.6 mph11.5 mph (4:00 pm)
Weather ElementAverage
Visibility17.2 mi
Wind DirectionSE (135.5 °)

Weather ElementTotal
Precipitation---
Heating Degree Days39.3 (Base 65)
Averaged from 29 records on February 22, 2013
WEATHER CONDITIONS BREAKOUT
WIND DIRECTION BREAKOUT
WEATHER BY HOUR - FEBRUARY 22, 2013
[ °C ]   °F
Local TimeTemperatureDewpointHumidityBarometerVisibilityWind DirectionWind SpeedGust SpeedPrecipitationEventsConditions
1:00 AM21.0 °F16.0 °F74 %30.41 in47.0 miSSW (210°)6.9 mphPartly Cloudy
1:00 AM21.2 °F15.8 °F80 %30.41 inSSW (210°)8.1 mphMostly Cloudy
2:00 AM21.2 °F17.6 °F86 %30.40 in15.0 miSW (220°)5.8 mphOvercast
3:00 AM21.2 °F17.6 °F86 %30.39 in15.0 miWSW (240°)6.9 mphMostly Cloudy
4:00 AM21.2 °F17.6 °F86 %30.38 in15.0 miSSW (210°)2.3 mphOvercast
5:00 AM21.2 °F17.6 °F86 %30.39 in15.0 miSW (220°)5.8 mphScattered Clouds
6:00 AM19.4 °F15.8 °F86 %30.41 in45.0 miWSW (250°)6.9 mphScattered Clouds
7:00 AM21.2 °F17.6 °F86 %30.45 in15.0 miWSW (240°)8.1 mphMostly Cloudy
7:00 AM22.0 °F18.0 °F78 %30.45 in15.0 miWSW (240°)8.1 mphMostly Cloudy
8:00 AM23.0 °F17.6 °F80 %30.46 in15.0 miNW (310°)3.5 mphMostly Cloudy
9:00 AM23.0 °F19.4 °F86 %30.44 in15.0 miVariable4.6 mphOvercast
10:00 AM24.8 °F19.4 °F80 %30.44 in15.0 miCalmOvercast
11:00 AM26.6 °F21.2 °F80 %30.43 in15.0 miSouth (170°)3.5 mphOvercast
11:13 AM26.6 °F21.2 °F80 %30.43 in15.0 miSouth (170°)2.3 mphSnowLight Snow
11:41 AM26.6 °F21.2 °F80 %30.42 in15.0 miSSE (150°)2.3 mphOvercast
12:00 PM26.6 °F21.2 °F80 %30.42 in15.0 miSSE (150°)4.6 mphOvercast
1:00 PM30.0 °F24.0 °F69 %30.39 in15.0 miESE (120°)3.5 mphPartly Cloudy
1:00 PM30.2 °F23.0 °F75 %30.39 in15.0 miESE (120°)3.5 mphMostly Cloudy
2:00 PM30.2 °F23.0 °F75 %30.37 in15.0 miEast (100°)5.8 mphOvercast
3:00 PM32.0 °F23.0 °F69 %30.36 in15.0 miESE (110°)6.9 mphOvercast
4:00 PM30.2 °F21.2 °F69 %30.33 in15.0 miEast (80°)11.5 mphOvercast
5:00 PM30.2 °F21.2 °F69 %30.32 in15.0 miEast (80°)8.1 mphOvercast
6:00 PM28.4 °F21.2 °F74 %30.30 in15.0 miNE (50°)11.5 mphOvercast
7:00 PM28.0 °F22.0 °F69 %30.31 in15.0 miNE (50°)6.9 mphOvercast
7:00 PM28.4 °F21.2 °F74 %30.31 in15.0 miNE (40°)6.9 mphOvercast
8:00 PM28.4 °F21.2 °F74 %30.28 in15.0 miNE (50°)11.5 mphOvercast
9:00 PM28.4 °F21.2 °F74 %30.27 in15.0 miNE (50°)11.5 mphOvercast
10:00 PM26.6 °F21.2 °F80 %30.26 in15.0 miNE (50°)11.5 mphMostly Cloudy
11:00 PM26.6 °F21.2 °F80 %30.24 in15.0 miNE (40°)11.5 mphOvercast
Hourly data recorded from CYUL, located miles away from Montreal, Quebec







STORIES FROM OUR PARTNERS